Weather History for Chamberlain, SD

Change the Weather History Date:

Thursday, October 11, 2012

  Actual Average Record
Temperature  
Mean Temperature 43 °F -  
Max Temperature 55 °F 62 °F 84 °F (1997)
Min Temperature 33 °F 37 °F 28 °F (2006)
Degree Days  
Heating Degree Days 22    
Moisture  
Dew Point 29 °F    
Average Humidity 57    
Maximum Humidity 73    
Minimum Humidity 41    
Precipitation  
Precipitation 0.00 in - - ()
Sea Level Pressure  
Sea Level Pressure 30.21 in    
Wind  
Wind Speed 11 mph (NNE)    
Max Wind Speed 21 mph    
Max Gust Speed 30 mph    
Averages and records for this station are not official NWS values.
T = Trace of Precipitation, MM = Missing Value Source: NWS Daily Summary

Daily Weather History Graph

Daily Weather History Graph

Search for Another Location

Airport:

Trip Planner

Search our weather history database for the weather conditions in past years. The results will help you decide how hot, cold, wet, or windy it might be!

Date:

Astronomy

Oct. 11, 2012 Rise Set
Actual Time 7:47 AM CDT 6:59 PM CDT
Civil Twilight 7:18 AM CDT 7:28 PM CDT
Nautical Twilight 6:45 AM CDT 8:01 PM CDT
Astronomical Twilight 6:11 AM CDT 8:34 PM CDT
Moon 3:19 AM CDT (10/11) 4:43 PM CDT (10/11)
Length of Visible Light 12h 09m
Length of Day
11h 12m
Waning Crescent, 18% of the Moon is Illuminated
Oct 11
Waning Crescent
Oct 15
New
Oct 21
First Quarter
Oct 29
Full
Nov 6
Last Quarter

Hourly Weather History & Observations

Time (CDT) Temp. Windchill Dew Point Humidity Pressure Visibility Wind Dir Wind Speed Gust Speed Precip Events Conditions
12:52 AM 45.0 °F 43.5 °F 30.9 °F 58% 29.85 in - WSW 3.5 mph - N/A   Unknown
1:32 AM 53.6 °F - 35.6 °F 51% 29.87 in - WNW 12.7 mph 28.8 mph N/A   Unknown
1:52 AM 52.0 °F - 34.0 °F 50% 29.87 in - NW 9.2 mph - N/A   Unknown
2:52 AM 51.1 °F - 33.1 °F 50% 29.91 in - North 11.5 mph - N/A   Unknown
3:52 AM 48.0 °F - 30.0 °F 50% 29.96 in - NNE 20.7 mph 29.9 mph N/A   Unknown
4:52 AM 41.0 °F 31.9 °F 32.0 °F 70% 30.02 in - North 19.6 mph 29.9 mph N/A   Unknown
5:52 AM 39.9 °F 31.4 °F 30.9 °F 70% 30.06 in - North 16.1 mph - N/A   Unknown
6:52 AM 39.9 °F 31.4 °F 30.9 °F 70% 30.11 in - North 16.1 mph - N/A   Unknown
7:52 AM 39.0 °F 30.6 °F 30.9 °F 73% 30.16 in - NNE 15.0 mph 27.6 mph N/A   Unknown
8:52 AM 39.0 °F 29.9 °F 30.9 °F 73% 30.20 in - NNE 17.3 mph 26.5 mph N/A   Unknown
9:52 AM 39.9 °F 31.4 °F 30.9 °F 70% 30.24 in - NNE 16.1 mph - N/A   Unknown
10:52 AM 43.0 °F 36.0 °F 30.9 °F 62% 30.27 in - NNE 13.8 mph - N/A   Unknown
11:52 AM 46.9 °F - 28.9 °F 50% 30.30 in - NNE 11.5 mph - N/A   Unknown
12:52 PM 48.0 °F - 27.0 °F 44% 30.32 in - NNW 15.0 mph - N/A   Unknown
1:52 PM 48.0 °F - 27.0 °F 44% 30.31 in - North 11.5 mph - N/A   Unknown
2:52 PM 50.0 °F - 27.0 °F 41% 30.30 in - NNE 10.4 mph - N/A   Unknown
3:52 PM 50.0 °F - 28.0 °F 43% 30.31 in - North 10.4 mph - N/A   Unknown
4:52 PM 50.0 °F - 28.0 °F 43% 30.32 in - NNE 10.4 mph - N/A   Unknown
5:52 PM 48.0 °F - 28.0 °F 46% 30.33 in - North 5.8 mph - N/A   Unknown
6:52 PM 43.0 °F 37.7 °F 26.1 °F 51% 30.36 in - NNE 9.2 mph - N/A   Unknown
7:52 PM 37.9 °F 32.1 °F 24.1 °F 57% 30.39 in - NE 8.1 mph - N/A   Unknown
8:52 PM 36.0 °F 32.1 °F 23.0 °F 59% 30.40 in - ENE 4.6 mph - N/A   Unknown
9:52 PM 34.0 °F 28.8 °F 23.0 °F 64% 30.42 in - East 5.8 mph - N/A   Unknown
10:52 PM 33.1 °F 27.7 °F 23.0 °F 66% 30.42 in - ESE 5.8 mph - N/A   Unknown
11:52 PM 33.1 °F 30.0 °F 23.0 °F 66% 30.43 in - ESE 3.5 mph - N/A   Unknown